N0PB Weather Reports


Display with metric or nautical units.
time (UTC)temp
F
wind
direction
speed
MPH
gust
MPH
rain 1hr
in
rain 24hr
in
rain mn
in
humidity
%
barometer
mb
20260510224608 66 293 4.0 9.0 0.00 0.04 0.01 35 1019.2
20260510223105 65 310 4.0 11.0 0.00 0.04 0.01 35 1019.2
20260510221559 65 354 6.0 11.0 0.00 0.04 0.01 35 1019.2
20260510220059 65 332 8.0 13.0 0.00 0.04 0.01 33 1019.1
20260510214559 65 321 4.0 11.0 0.00 0.04 0.01 32 1019.2
20260510213058 66 339 8.0 13.0 0.00 0.04 0.01 34 1019.3
20260510211603 65 312 9.0 13.0 0.00 0.04 0.01 36 1019.3
20260510210056 65 341 8.0 16.0 0.00 0.04 0.01 33 1019.3
20260510204603 65 346 5.0 14.0 0.00 0.04 0.01 34 1019.5
20260510203055 65 321 8.0 13.0 0.00 0.04 0.01 33 1019.5
20260510201554 65 322 8.0 13.0 0.00 0.04 0.01 35 1019.4
20260510200107 65 319 9.0 16.0 0.00 0.04 0.01 35 1019.6
20260510194607 65 307 5.0 12.0 0.00 0.04 0.01 34 1019.4
20260510193109 65 14 7.0 14.0 0.00 0.04 0.01 36 1019.5
20260510191552 65 347 3.0 13.0 0.00 0.04 0.01 37 1019.5
20260510190054 65 309 7.0 13.0 0.00 0.04 0.01 34 1019.5
20260510184554 64 328 9.0 14.0 0.00 0.04 0.01 37 1019.4
20260510183047 64 18 3.0 11.0 0.00 0.04 0.01 35 1019.3
20260510181547 64 333 6.0 12.0 0.00 0.04 0.01 38 1019.2
20260510180047 64 354 9.0 15.0 0.00 0.04 0.01 38 1019.3
20260510174553 64 9 6.0 14.0 0.00 0.04 0.01 37 1019.2
20260510173043 63 37 4.0 13.0 0.00 0.04 0.01 35 1019.4
20260510171544 63 322 2.0 13.0 0.00 0.04 0.01 34 1019.5
20260510170042 63 344 6.0 14.0 0.00 0.04 0.01 39 1019.8
20260510164546 62 348 8.0 18.0 0.00 0.04 0.01 38 1019.8
20260510163038 62 34 3.0 10.0 0.00 0.04 0.01 39 1019.7
20260510161536 62 4 7.0 11.0 0.00 0.04 0.01 38 1019.7
20260510160036 61 14 4.0 13.0 0.00 0.04 0.01 42 1019.6
20260510154531 60 308 5.0 11.0 0.00 0.04 0.01 42 1019.6
20260510153032 60 338 8.0 13.0 0.00 0.04 0.01 44 1019.5
20260510151528 60 328 7.0 12.0 0.00 0.04 0.01 44 1019.6
20260510150025 59 337 7.0 11.0 0.00 0.04 0.01 46 1019.3
20260510144528 58 348 5.0 10.0 0.00 0.04 0.01 50 1019.1
20260510143024 57 25 4.0 11.0 0.00 0.04 0.01 53 1019.1
20260510141523 56 354 6.0 10.0 0.00 0.04 0.01 54 1018.9
20260510140021 56 22 4.0 8.0 0.00 0.04 0.01 56 1019.4
20260510134520 54 4 5.0 9.0 0.00 0.04 0.01 58 1019.1
20260510133015 53 354 6.0 9.0 0.00 0.04 0.01 57 1018.6
20260510131513 52 14 9.0 13.0 0.00 0.04 0.01 58 1018.0
20260510130014 52 8 8.0 11.0 0.00 0.04 0.01 60 1017.8
20260510124512 51 354 5.0 9.0 0.00 0.04 0.01 64 1018.0
20260510123010 50 349 4.0 9.0 0.00 0.04 0.01 63 1017.8
20260510121508 49 354 5.0 10.0 0.00 0.04 0.01 64 1017.6
20260510120005 49 344 4.0 8.0 0.00 0.04 0.01 65 1017.4
20260510114503 49 346 4.0 8.0 0.00 0.04 0.01 65 1017.2
20260510113102 48 354 4.0 9.0 0.00 0.04 0.01 64 1016.8
20260510111604 49 354 4.0 9.0 0.00 0.04 0.01 64 1016.4
20260510110100 49 354 3.0 6.0 0.00 0.04 0.01 63 1016.3
20260510104558 50 347 4.0 6.0 0.00 0.04 0.01 62 1016.3
20260510103049 50 346 3.0 6.0 0.00 0.04 0.01 63 1016.0
20260510101548 50 342 3.0 6.0 0.00 0.04 0.01 63 1015.8
20260510100058 51 340 4.0 8.0 0.00 0.04 0.01 63 1015.6
20260510094551 52 338 4.0 8.0 0.00 0.05 0.01 62 1015.6
20260510093037 52 354 5.0 9.0 0.00 0.05 0.01 61 1015.2
20260510091534 53 337 4.0 6.0 0.00 0.05 0.01 62 1015.1
20260510090031 53 345 3.0 8.0 0.00 0.05 0.01 62 1014.7
20260510084528 54 329 3.0 4.0 0.00 0.05 0.01 63 1014.7
20260510083026 54 319 4.0 5.0 0.00 0.05 0.01 60 1014.7
20260510081522 55 339 0.0 0.0 0.00 0.05 0.01 58 1014.0
20260510080021 55 339 0.0 2.0 0.00 0.05 0.01 57 1013.9
20260510074523 55 339 1.0 4.0 0.00 0.05 0.01 58 1013.9
20260510073015 56 354 3.0 6.0 0.01 0.05 0.01 60 1013.4
20260510071514 56 12 4.0 9.0 0.01 0.05 0.01 66 1013.1
20260510070012 56 8 4.0 8.0 0.01 0.05 0.01 68 1013.3
20260510064507 57 10 4.0 8.0 0.01 0.05 0.01 70 1013.2
20260510063004 57 359 4.0 9.0 0.00 0.04 0.00 71 1013.1
20260510061503 57 4 3.0 5.0 0.00 0.04 0.00 73 1012.9
20260510054601 57 354 2.0 4.0 0.00 0.04 0.00 76 1012.3
20260510053052 57 354 2.0 4.0 0.00 0.04 0.00 77 1012.2
20260510051551 57 354 0.0 0.0 0.00 0.04 0.00 77 1012.2
20260510050051 59 354 0.0 2.0 0.00 0.04 0.00 74 1011.8
20260510044546 59 354 1.0 3.0 0.00 0.05 0.04 73 1011.7
20260510043043 60 354 3.0 4.0 0.00 0.05 0.04 72 1011.3
20260510041549 60 354 2.0 4.0 0.00 0.05 0.04 71 1011.2
20260510040042 61 354 2.0 4.0 0.00 0.05 0.04 71 1011.2
20260510034541 61 359 2.0 4.0 0.00 0.05 0.04 71 1011.2
20260510033053 61 359 2.0 3.0 0.00 0.05 0.04 72 1011.2
20260510031539 61 359 3.0 5.0 0.00 0.05 0.04 73 1011.0
20260510030036 61 359 3.0 6.0 0.00 0.05 0.04 75 1010.6
20260510024534 60 359 3.0 6.0 0.00 0.05 0.04 80 1010.2
20260510023033 61 334 4.0 8.0 0.00 0.05 0.04 83 1009.7
20260510021534 61 335 2.0 4.0 0.00 0.05 0.04 83 1008.8
20260510020029 62 303 0.0 0.0 0.00 0.05 0.04 82 1008.4
20260510014525 62 303 0.0 0.0 0.02 0.05 0.04 82 1008.1
20260510013028 62 303 2.0 8.0 0.03 0.05 0.04 81 1008.1
20260510011524 62 311 6.0 14.0 0.03 0.05 0.04 81 1008.4
20260510010023 63 294 11.0 20.0 0.03 0.05 0.04 79 1008.5
20260510004521 65 272 18.0 30.0 0.01 0.03 0.02 74 1008.2
20260510003020 67 256 23.0 40.0 0.00 0.02 0.01 67 1007.6
20260510001530 75 231 1.0 3.0 0.00 0.02 0.01 50 1006.0
20260510000018 77 234 0.0 0.0 0.00 0.02 0.01 45 1005.6
20260509234517 78 234 1.0 2.0 0.00 0.02 0.01 40 1005.6
20260509233015 79 234 2.0 7.0 0.00 0.02 0.01 42 1005.6
20260509231513 79 234 4.0 7.0 0.00 0.02 0.01 39 1005.7
20260509230009 78 235 0.0 2.0 0.00 0.02 0.01 38 1005.9